Flag for United Kingdom Weather past 2 weeks in York, England, United Kingdom

Now
70 °F

Overcast.


Feels Like: 70 °F
Forecast: 54 / 67 °F
Wind: 14 mph from Southwest

Location: Linton-On-Ouse

Current Time: Aug 3, 2015 at 6:58:43 PM

Latest Report: Aug 3, 2015 at 5:50 PM


Visibility: N/A

Pressure: 29.71 "Hg

Humidity: 43%

Dew point: 46 °F

Location of YorkLocation

Historic Weather in York — Graph

°F

York temperature yesterday

Maximum temperature yesterday: 72 °F (at 4:50 PM)
Minimum temperature yesterday: 52 °F (at 3:50 AM)
Average temperature yesterday: 61 °F

Past Weeks' High & Low Weather Summary

 TemperatureHumidityPressure
High72 °F (Jul 20, 6:50 PM)100% (Jul 24, 5:50 AM)30.12 "Hg (Jul 24, 5:50 AM)
Low41 °F (Jul 26, 4:50 AM)40% (Jul 23, 4:50 PM)29.33 "Hg (Jul 26, 11:50 PM)
Average58 °F75%29.82 "Hg
* Reported Jul 19 4:50 PM — Aug 3 4:50 PM, York, Weather by CustomWeather, © 2015

Note: Actual official high and low records may vary slightly from our data, if they occured in-between our weather recording intervals... More about our weather records

Advertising

York weather history for previous 24 hours

 ConditionsComfort  
Time TempWeatherWind HumidityBarometerVisibility
4:50 PM
Mon, Aug 3
72 °FPartly sunny.17 mph47%29.71 "HgN/A
3:50 PM72 °FScattered clouds.17 mph47%29.71 "HgN/A
2:50 PM72 °FBroken clouds.13 mph57%29.74 "HgN/A
1:50 PM70 °FBroken clouds.12 mph64%29.74 "HgN/A
12:50 PM72 °FBroken clouds.16 mph50%29.71 "HgN/A
11:50 AM72 °FPartly sunny.18 mph53%29.71 "HgN/A
10:50 AM70 °FPartly sunny.17 mph60%29.71 "HgN/A
9:50 AM68 °FPartly sunny.12 mph60%29.71 "HgN/A
8:50 AM64 °FSunny.9 mph64%29.71 "Hg10 mi
7:50 AM63 °FSunny.8 mph68%29.71 "Hg10 mi
6:50 AM61 °FSunny.6 mph72%29.71 "Hg10 mi
5:50 AM59 °FClear.7 mph72%29.71 "Hg10 mi
4:50 AM61 °FPassing clouds.8 mph68%29.71 "HgN/A
3:50 AM61 °FPassing clouds.10 mph68%29.74 "HgN/A
2:50 AM63 °FPassing clouds.6 mph64%29.77 "HgN/A
1:50 AM63 °FPartly cloudy.9 mph68%29.80 "HgN/A
12:50 AM63 °FOvercast.6 mph68%29.83 "HgN/A
11:50 PM
Sun, Aug 2
64 °FPassing clouds.14 mph68%29.86 "HgN/A
10:50 PM64 °FOvercast.14 mph68%29.83 "HgN/A
9:50 PM63 °FOvercast.9 mph73%29.89 "HgN/A
8:50 PM66 °FOvercast.12 mph68%29.89 "HgN/A
7:50 PM72 °FBroken clouds.13 mph53%29.89 "HgN/A
6:50 PM72 °FScattered clouds.7 mph41%29.89 "HgN/A
Weather by CustomWeather, © 2015

See weather overviewHow to use our weather pages